Cloud_Cover
3 0 0 0 0 0 0 0 0 2 0 0 0 0 0 0 1 5 3 5 3 5 5 5 5 1 0 0 0 0 0 0 0 0 0 0 0 0 2 4 4 2 0 0 0
48 1 0 0 0 0 0 0 0 0 0 0 0 0 0 0 4 5 1 4 3 5 2 6 23 5 0 0 0 0 0 0 0 0 0 0 0 0 0 0 0 0 0 0 0
100 33 0 0 0 0 0 0 0 0 0 0 0 0 0 0 5 5 5 5 3 5 44 94 95 5 0 0 0 0 0 0 0 0 0 0 0 0 0 0 0 0 0 0 0
100 99 5 0 0 0 0 0 0 0 0 0 0 0 0 0 5 5 5 5 5 5 17 100 99 28 5 0 0 0 0 0 0 0 0 0 0 0 0 0 0 0 0 0 0
100 100 46 0 0 0 0 0 0 0 0 0 0 0 0 0 3 6 5 5 5 9 22 97 9 54 50 5 0 0 0 0 0 0 0 0 0 0 0 0 1 0 0 0 0
100 100 66 0 0 0 0 0 0 0 0 0 0 0 0 0 5 38 5 5 17 100 100 33 22 44 56 6 5 0 0 0 0 0 0 0 0 5 5 0 5 0 1 0 0
97 100 99 15 0 0 0 0 0 0 0 0 0 0 0 0 5 9 20 5 55 100 100 24 16 18 6 5 5 0 0 0 0 0 0 0 0 0 0 3 0 2 4 0 0
0 30 30 10 0 0 0 0 0 0 0 0 0 0 0 5 20 5 5 7 54 100 100 93 7 5 5 6 19 5 4 0 0 0 0 0 5 4 3 8 9 5 0 5 4
0 0 0 0 0 0 0 0 0 0 0 0 0 0 0 5 51 39 32 5 81 99 41 52 5 5 36 24 55 38 44 61 6 5 38 5 100 5 5 12 5 35 15 5 1
13 0 0 0 0 0 0 0 0 0 0 0 0 0 3 12 69 5 62 67 100 36 85 72 5 5 10 30 72 95 75 82 26 5 99 21 100 16 100 100 84 42 88 8 5
99 4 0 0 0 0 0 0 0 0 0 0 0 3 5 6 45 65 94 100 93 19 73 65 99 35 5 5 49 38 99 70 97 6 7 22 100 100 30 6 6 5 75 5 5
100 16 44 5 4 0 0 0 0 0 0 0 0 6 5 37 99 69 100 34 6 16 5 42 100 100 33 5 5 8 7 83 100 100 11 5 22 100 94 4 4 6 80 7 5
100 62 70 6 5 13 4 0 0 0 0 0 5 5 5 7 88 100 90 13 6 77 100 92 100 100 91 28 5 37 5 22 82 100 99 40 76 100 84 6 5 5 8 5 5
100 100 100 97 99 63 43 5 5 0 3 100 6 4 5 74 100 98 100 100 100 100 100 93 100 100 100 97 5 5 17 8 6 72 100 100 41 100 100 30 5 5 5 5 16
100 100 100 100 100 98 70 46 53 39 12 94 100 20 6 5 10 19 36 100 99 98 100 100 100 100 100 88 5 9 67 100 100 100 100 100 100 100 100 3 58 98 29 5 81
100 100 88 100 98 100 95 5 6 8 69 100 100 100 66 5 5 5 38 17 70 100 100 100 100 99 100 100 67 21 100 76 66 100 100 100 100 100 96 30 100 56 5 32 19
100 100 94 100 100 94 98 26 5 5 100 100 100 100 100 100 99 100 100 100 100 100 100 99 36 73 100 100 100 100 90 5 36 100 97 77 82 100 100 75 10 72 70 100 91
100 100 100 100 100 100 68 61 8 100 100 100 100 100 100 100 100 100 100 100 100 100 100 100 100 100 100 100 80 56 97 86 11 61 5 10 79 100 100 14 40 64 100 93 19
100 96 100 100 100 100 58 1 88 100 100 100 100 100 100 100 100 100 100 100 100 100 100 100 100 100 100 100 56 100 80 99 100 80 5 35 100 100 100 5 5 5 5 5 5
100 100 100 100 100 100 55 13 51 100 100 100 100 100 100 100 100 100 100 100 100 100 100 100 100 100 96 100 100 100 100 100 100 24 5 5 60 100 61 0 3 5 5 4 5
100 97 85 100 100 100 49 2 84 95 100 100 100 100 100 100 100 100 100 100 100 100 100 100 100 100 100 100 100 100 100 100 78 11 5 57 62 99 94 0 4 1 5 3 0
100 100 17 100 100 58 8 96 90 100 100 88 99 100 100 100 100 100 100 100 100 100 100 100 96 8 92 100 86 100 100 100 100 6 5 10 25 48 100 30 5 5 75 1 5
100 100 22 100 24 81 40 73 90 100 100 100 100 100 100 100 93 100 100 100 100 100 100 100 52 5 89 74 100 100 100 100 100 90 10 76 2 47 55 6 34 0 11 4 5
100 100 100 100 44 60 99 36 60 100 100 98 100 100 100 100 100 88 100 100 100 100 100 100 79 61 85 88 30 27 99 100 100 5 86 2 5 76 62 96 5 45 6 5 22
100 99 37 100 100 100 99 40 98 58 100 100 52 98 100 100 100 100 100 100 100 100 100 100 100 100 82 100 85 100 100 100 100 100 92 7 18 46 100 82 86 38 94 11 43
100 100 100 45 39 93 100 30 98 100 100 100 60 100 100 29 100 100 100 100 100 73 65 46 45 12 20 93 95 51 100 100 100 99 100 100 4 100 100 100 100 100 100 100 73
100 100 100 100 100 100 62 37 100 100 94 65 100 97 93 100 100 100 100 100 97 69 84 98 87 100 72 79 100 28 100 100 100 100 100 100 100 100 100 100 100 100 100 84 100